Latest Coastal Weather Observations for Cape Borda

IDT60701

Issued at 11:12 am EST Thursday 30 June 2016 (issued every 10 minutes, with the page automatically refreshed every 10 minutes)

About coastal observations | Map of coastal stations | Coastal observations for TAS | Marine services | Other Formats
Station Details ID: 022823 Name: CAPE BORDA Lat: -35.75 Lon: 136.60 Height: 158.0 m
Data from the previous 72 hours. | See also: Recent months at Cape Borda
Date/Time
EST
Temp
°C
Wind Pressure Rain since
9am
mm
Weather Cloud Vis
km
Sea
Height
m
Swell
Dir  Spd
kts
Gust
kts
hPa Trend Height
m
Period
s
Dir
30/11:10am 12.2 WSW 23 33 1012.8 - 0.0 - - - - - - -
30/11:00am 11.9 WSW 23 32 1012.8 - 0.0 - - - - - - -
30/10:30am 12.2 WSW 21 33 1012.4 - 0.0 - - - - - - -
30/10:04am 12.2 WSW 23 33 1011.8 - 0.0 - - - - - - -
30/10:00am 12.0 WSW 22 31 1011.8 - 0.0 - - - - - - -
30/09:30am 11.7 WSW 22 34 1011.3 - 4.2 - - - - - - -
30/09:00am 10.4 WSW 21 31 1010.9 - 4.2 - - - - - - -
30/08:30am 11.7 WSW 25 38 1010.2 - 3.8 - - - - - - -
30/08:00am 11.5 SW 21 33 1009.7 - 3.8 - - - - - - -
30/07:48am 12.0 WSW 24 34 1009.4 - 3.8 - - - - - - -
30/07:44am 12.3 WSW 25 30 1009.2 - 3.8 - - - - - - -
30/07:38am 12.5 W 22 32 1009.1 - 3.8 - - - - - - -
30/07:30am 12.2 W 21 29 1009.0 - 3.8 - - - - - - -
30/07:10am 12.3 W 22 41 1009.0 - 3.2 - - - - - - -
30/07:04am 13.4 W 20 30 1008.6 - 2.8 - - - - - - -
30/07:00am 13.6 W 19 28 1008.6 - 2.8 - - - - - - -
30/06:30am 13.5 W 21 31 1008.9 - 2.8 - - - - - - -
30/06:00am 12.8 W 22 33 1008.6 - 2.8 - - - - - - -
30/05:44am 13.3 W 20 30 1008.7 - 2.8 - - - - - - -
30/05:30am 13.3 W 22 31 1008.6 - 2.8 - - - - - - -
30/05:03am 13.5 W 22 32 1008.7 - 2.8 - - - - - - -
30/05:00am 13.6 W 23 32 1008.6 - 2.8 - - - - - - -
30/04:38am 13.5 W 22 32 1008.6 - 2.8 - - - - - - -
30/04:30am 13.6 W 23 32 1008.6 - 2.8 - - - - - - -
30/04:00am 13.8 W 22 32 1008.7 - 2.8 - - - - - - -
30/03:31am 14.0 W 21 31 1008.4 - 2.8 - - - - - - -
30/03:30am 14.0 W 22 31 1008.4 - 2.8 - - - - - - -
30/03:00am 14.0 WNW 18 29 1008.4 - 2.8 - - - - - - -
30/02:42am 14.0 WNW 17 27 1008.6 - 2.8 - - - - - - -
30/02:30am 14.0 WNW 19 27 1008.8 - 2.8 - - - - - - -
30/02:00am 13.4 WNW 18 29 1008.7 - 2.8 - - - - - - -
30/01:57am 13.3 NW 18 29 1008.8 - 2.8 - - - - - - -
30/01:30am 13.0 NW 17 26 1008.8 - 2.8 - - - - - - -
30/01:00am 13.1 NW 19 26 1009.4 - 2.8 - - - - - - -
30/12:30am 12.4 NNW 17 25 1009.9 - 2.8 - - - - - - -
30/12:20am 12.2 NNW 18 28 1010.1 - 2.8 - - - - - - -
30/12:00am 12.3 NNW 19 26 1010.2 - 2.8 - - - - - - -
 
Date/Time
EST
Temp
°C
Wind Pressure Rain since
9am
mm
Weather Cloud Vis
km
Sea
Height
m
Swell
Dir  Spd
kts
Gust
kts
hPa Trend Height
m
Period
s
Dir
29/11:35pm 12.3 NNW 20 30 1010.4 - 1.8 - - - - - - -
29/11:30pm 12.2 NNW 19 26 1010.5 - 1.6 - - - - - - -
29/11:00pm 12.3 NNW 19 27 1011.0 - 0.8 - - - - - - -
29/10:30pm 12.8 NNW 19 27 1011.3 - 0.4 - - - - - - -
29/10:17pm 13.2 NNW 17 27 1011.3 - 0.2 - - - - - - -
29/10:00pm 12.9 NNW 19 27 1011.4 - 0.2 - - - - - - -
29/09:38pm 13.6 NNW 18 28 1011.5 - 0.0 - - - - - - -
29/09:30pm 13.8 NNW 21 28 1011.8 - 0.0 - - - - - - -
29/09:10pm 13.9 N 17 27 1011.5 - 0.0 - - - - - - -
29/09:00pm 14.0 N 19 26 1011.6 - 0.0 - - - - - - -
29/08:30pm 13.9 NNW 19 27 1012.0 - 0.0 - - - - - - -
29/08:23pm 13.7 N 17 27 1012.0 - 0.0 - - - - - - -
29/08:00pm 13.8 N 19 28 1012.3 - 0.0 - - - - - - -
29/07:46pm 14.0 NNW 21 31 1012.3 - 0.0 - - - - - - -
29/07:30pm 13.8 N 21 28 1012.2 - 0.0 - - - - - - -
29/07:16pm 13.9 N 19 29 1012.3 - 0.0 - - - - - - -
29/07:00pm 14.0 N 20 27 1012.5 - 0.0 - - - - - - -
29/06:30pm 13.8 NNW 19 29 1012.8 - 0.0 - - - - - - -
29/06:29pm 13.9 NNW 19 29 1012.7 - 0.0 - - - - - - -
29/06:00pm 13.9 NNW 20 28 1012.8 - 0.0 - - - - - - -
29/05:30pm 13.7 N 20 30 1012.9 - 0.0 - - - - - - -
29/05:00pm 13.5 N 21 31 1013.1 - 0.0 - - - - - - -
29/04:51pm 13.6 N 19 29 1013.1 - 0.0 - - - - - - -
29/04:30pm 13.4 N 20 28 1013.2 - 0.0 - - - - - - -
29/04:01pm 13.3 N 21 31 1013.2 - 0.0 - - - - - - -
29/04:00pm 13.3 N 21 30 1013.3 - 0.0 - - - - - - -
29/03:38pm 13.3 N 18 28 1013.5 - 0.0 - - - - - - -
29/03:30pm 13.3 N 21 29 1013.5 - 0.0 - - - - - - -
29/03:00pm 12.9 N 21 32 1013.8 - 0.0 - - - - - - -
29/02:30pm 13.0 N 22 32 1014.3 - 0.0 - - - - - - -
29/02:00pm 13.4 N 21 35 1014.7 - 0.0 - - - - - - -
29/01:30pm 12.8 N 24 35 1015.4 - 0.0 - - - - - - -
29/01:02pm 12.7 N 24 34 1016.1 - 0.0 - - - - - - -
29/01:00pm 12.6 N 25 33 1016.1 - 0.0 - - - - - - -
29/12:30pm 12.7 N 24 36 1016.9 - 0.0 - - - - - - -
29/12:00pm 12.9 NNW 23 35 1017.4 - 0.0 - - - - - - -
29/11:31am 13.0 N 23 33 1018.1 - 0.0 - - - - - - -
29/11:30am 12.9 N 24 33 1018.1 - 0.0 - - - - - - -
29/11:00am 13.0 N 24 35 1018.5 - 0.0 - - - - - - -
29/10:30am 12.8 N 21 33 1018.9 - 0.0 - - - - - - -
29/10:02am 12.7 N 23 33 1019.2 - 0.0 - - - - - - -
29/10:00am 12.7 N 23 32 1019.2 - 0.0 - - - - - - -
29/09:44am 12.8 N 20 32 1019.5 - 0.0 - - - - - - -
29/09:30am 12.7 N 21 30 1019.6 - 5.2 - - - - - - -
29/09:00am 12.8 N 20 29 1019.6 - 5.2 - - - - - - -
29/08:32am 12.6 N 19 29 1019.9 - 5.2 - - - - - - -
29/08:30am 12.6 N 20 29 1019.9 - 5.2 - - - - - - -
29/08:09am 12.6 N 17 27 1020.0 - 5.2 - - - - - - -
29/08:00am 12.7 N 18 26 1020.0 - 5.2 - - - - - - -
29/07:50am 12.7 N 18 29 1020.2 - 5.2 - - - - - - -
29/07:30am 12.7 N 18 27 1020.4 - 5.2 - - - - - - -
29/07:00am 12.7 NNW 20 30 1020.4 - 5.2 - - - - - - -
29/06:51am 12.9 N 18 28 1020.5 - 5.2 - - - - - - -
29/06:30am 12.6 N 17 25 1020.8 - 5.2 - - - - - - -
29/06:00am 12.7 NNW 18 25 1021.0 - 5.2 - - - - - - -
29/05:34am 12.5 N 18 28 1021.1 - 5.2 - - - - - - -
29/05:30am 12.5 N 19 27 1021.1 - 5.2 - - - - - - -
29/05:00am 12.5 N 18 26 1021.4 - 5.2 - - - - - - -
29/04:30am 12.8 NNW 19 27 1021.5 - 5.2 - - - - - - -
29/04:00am 12.7 NNW 19 27 1021.7 - 5.2 - - - - - - -
29/03:30am 12.8 NNW 20 29 1022.1 - 5.2 - - - - - - -
29/03:23am 12.8 N 18 29 1022.1 - 5.2 - - - - - - -
29/03:00am 13.0 N 19 25 1022.1 - 5.2 - - - - - - -
29/02:30am 12.7 N 17 25 1022.4 - 5.2 - - - - - - -
29/02:00am 13.0 N 17 23 1022.4 - 5.2 - - - - - - -
29/01:30am 13.1 N 16 22 1022.7 - 5.2 - - - - - - -
29/01:00am 13.1 N 13 19 1022.9 - 5.2 - - - - - - -
29/12:30am 12.9 N 11 17 1023.3 - 5.2 - - - - - - -
29/12:00am 12.7 N 11 17 1023.5 - 5.2 - - - - - - -
 
Date/Time
EST
Temp
°C
Wind Pressure Rain since
9am
mm
Weather Cloud Vis
km
Sea
Height
m
Swell
Dir  Spd
kts
Gust
kts
hPa Trend Height
m
Period
s
Dir
28/11:30pm 12.7 NNW 11 16 1023.7 - 5.2 - - - - - - -
28/11:00pm 12.6 NNW 11 15 1023.9 - 5.2 - - - - - - -
28/10:30pm 12.9 N 13 18 1024.0 - 5.2 - - - - - - -
28/10:00pm 12.8 NNW 13 20 1024.1 - 5.2 - - - - - - -
28/09:30pm 12.9 NNW 13 20 1024.3 - 5.2 - - - - - - -
28/09:00pm 12.7 NNW 12 18 1024.3 - 5.2 - - - - - - -
28/08:30pm 12.8 NNW 13 18 1024.3 - 5.2 - - - - - - -
28/08:00pm 12.7 NNW 11 17 1024.0 - 5.2 - - - - - - -
28/07:30pm 12.4 NNW 11 14 1023.9 - 5.2 - - - - - - -
28/07:00pm 12.1 NW 10 16 1023.8 - 5.2 - - - - - - -
28/06:30pm 12.3 WNW 9 14 1023.8 - 5.2 - - - - - - -
28/06:00pm 12.6 WNW 8 11 1023.6 - 5.2 - - - - - - -
28/05:30pm 11.8 NW 12 17 1023.5 - 5.2 - - - - - - -
28/05:00pm 12.1 WNW 9 12 1023.6 - 5.2 - - - - - - -
28/04:30pm 11.6 NW 13 19 1023.7 - 5.2 - - - - - - -
28/04:00pm 11.6 NW 13 17 1023.7 - 4.4 - - - - - - -
28/03:30pm 11.7 NW 19 25 1023.8 R 3.2 Mist Cloudy 5 3 5.7 8 SW
28/03:22pm 12.1 NW 15 25 1023.6 - 3.2 - - - - - - -
28/03:00pm 11.8 NW 17 25 1023.7 - 1.4 - - - - - - -
28/02:56pm 12.2 NW 15 25 1023.6 - 1.4 - - - - - - -
28/02:30pm 12.4 NW 15 20 1023.8 - 1.2 - - - - - - -
28/02:00pm 12.2 NW 17 24 1024.0 - 0.8 - - - - - - -
28/01:30pm 12.7 WNW 16 24 1024.1 - 0.2 - - - - - - -
28/01:00pm 15.0 NW 17 23 1024.3 - 0.0 - - - - - - -
28/12:30pm 14.7 NW 18 23 1024.6 - 0.0 - - - - - - -
28/12:00pm 13.7 NW 16 22 1024.9 - 0.0 - - - - - - -
28/11:30am 12.2 NW 14 19 1025.1 - 0.0 - - - - - - -
28/11:00am 13.7 NW 15 23 1025.0 - 0.0 - - - - - - -
28/10:30am 13.4 NW 14 21 1024.9 - 0.0 - - - - - - -
28/10:00am 13.4 NW 14 20 1024.7 - 0.0 - - - - - - -
28/09:30am 12.8 NW 14 21 1024.5 R 7.2 Haze Mostly cloudy 18 1 5.3 8 SW
28/09:00am 11.9 NW 11 17 1024.2 - 7.0 - - - - - - -
28/08:30am 11.8 NW 10 13 1023.9 - 6.6 - - - - - - -
28/08:00am 11.9 W 11 17 1023.6 - 6.6 - - - - - - -
28/07:30am 12.2 WNW 13 17 1023.3 - 6.6 - - - - - - -
28/07:00am 12.1 W 11 16 1022.9 - 6.6 - - - - - - -
28/06:30am 11.1 W 12 22 1022.8 - 6.4 - - - - - - -
28/06:00am 12.7 WNW 10 14 1022.3 - 1.8 - - - - - - -
28/05:30am 12.6 WNW 9 13 1022.2 - 1.8 - - - - - - -
28/05:00am 12.7 W 9 12 1022.1 - 1.2 - - - - - - -
28/04:30am 12.7 W 8 13 1022.0 - 1.2 - - - - - - -
28/04:00am 12.6 W 13 17 1022.1 - 1.2 - - - - - - -
28/03:30am 12.9 WNW 10 13 1022.3 - 1.2 - - - - - - -
28/03:00am 12.7 W 11 16 1022.3 - 1.2 - - - - - - -
28/02:30am 13.0 NW 9 14 1022.1 - 1.2 - - - - - - -
28/02:00am 12.7 W 10 13 1022.1 - 1.2 - - - - - - -
28/01:30am 12.7 W 11 16 1022.2 - 1.2 - - - - - - -
28/01:00am 12.6 W 12 17 1022.4 - 1.2 - - - - - - -
28/12:30am 12.4 WNW 13 23 1022.4 - 1.2 - - - - - - -
28/12:00am 13.2 W 13 18 1022.3 - 0.0 - - - - - - -
 
Date/Time
EST
Temp
°C
Wind Pressure Rain since
9am
mm
Weather Cloud Vis
km
Sea
Height
m
Swell
Dir  Spd
kts
Gust
kts
hPa Trend Height
m
Period
s
Dir
27/11:30pm 13.2 W 13 17 1022.2 - 0.0 - - - - - - -
27/11:00pm 13.1 NW 11 16 1022.2 - 0.0 - - - - - - -
27/10:30pm 12.4 WNW 11 15 1022.1 - 0.0 - - - - - - -
27/10:00pm 12.8 WNW 10 15 1022.0 - 0.0 - - - - - - -
27/09:30pm 12.5 WNW 8 11 1022.1 - 0.0 - - - - - - -
27/09:00pm 12.5 WNW 9 17 1022.0 - 0.0 - - - - - - -
27/08:30pm 12.6 WNW 11 16 1021.8 - 0.0 - - - - - - -
27/08:00pm 12.9 WNW 12 17 1021.6 - 0.0 - - - - - - -
27/07:30pm 12.1 WNW 8 11 1021.4 - 0.0 - - - - - - -
27/07:00pm 12.0 WNW 8 11 1021.2 - 0.0 - - - - - - -
27/06:30pm 12.7 W 12 19 1021.0 - 0.0 - - - - - - -
27/06:00pm 12.3 W 10 19 1020.8 - 0.0 - - - - - - -
27/05:30pm 12.9 W 12 17 1020.4 - 0.0 - - - - - - -
27/05:00pm 13.8 W 13 16 1020.3 - 0.0 - - - - - - -
27/04:30pm 14.2 W 13 19 1020.3 - 0.0 - - - - - - -
27/04:00pm 14.3 W 14 18 1020.2 - 0.0 - - - - - - -
27/03:30pm 13.7 W 13 18 1020.1 R 0.0 Fine Partly cloudy 20 1 5.0 9 SW
27/03:00pm 14.6 W 13 19 1020.0 - 0.0 - - - - - - -
27/02:30pm 14.5 W 14 18 1020.0 - 0.0 - - - - - - -
27/02:00pm 14.6 W 12 18 1020.2 - 0.0 - - - - - - -
27/01:30pm 14.5 W 13 19 1020.3 - 0.0 - - - - - - -
27/01:00pm 13.6 W 12 16 1020.8 - 0.0 - - - - - - -
27/12:30pm 14.3 W 12 17 1021.1 - 0.0 - - - - - - -
27/12:00pm 13.8 W 11 16 1021.2 - 0.0 - - - - - - -

Other Formats:

Comma delimited format used in spreadsheet applications
http://www.bom.gov.au/fwo/IDT60701/IDT60701.95805.axf

JavaScript Object Notation format (JSON) in row-major order
http://www.bom.gov.au/fwo/IDT60701/IDT60701.95805.json